Location: Bronnegerveen
(52.9548°N, 6.8388°E)
Time: 02:13:58
(UTC+00:00)

Cosmos 2082 Rocket - Pass Details

Date: 15 June 2025
Orbit: 831 x 854 km, 71.0° (Epoch: 07 July)

Event Time Altitude Azimuth Distance (km) Brightness Sun altitude
Rises 01:43:53 0° 327° (NNW) 3,420 5.7 -8.6°
Reaches altitude 10° 01:46:21 10° 325° (NW) 2,484 5.0 -8.4°
Maximum altitude 01:52:00 67° 244° (WSW) 924 2.2 -8.0°
Drops below altitude 10° 01:57:38 10° 163° (SSE) 2,478 4.3 -7.5°
Sets 02:00:06 0° 161° (SSE) 3,411 5.0 -7.3°
